This demonstration page uses our WeatherBlox Daily Observations layout. Learn more.

Left ArrowRight Arrow

34.02893, -84.19858

Hourly Observations for May 5, 2022

Temp ( °F °C ) Dew Point ( °F °C ) Humidity (%) Winds ( mph kmh ) Pressure ( in mb ) Visibility ( mi km ) Precip ( " mm )
12:53 am 00:53 Clear 70 21.1 64 17.8 82 82 NW 6 9 30.00 1016 10 16 0.00 0.00
1:53 am 01:53 Clear 69 20.6 63 17.2 81 81 NW 5 7 29.99 1016 10 16 0.00 0.00
2:53 am 02:53 Clear 66 18.9 62 16.7 87 87 Calm 29.98 1015 10 16 0.00 0.00
3:53 am 03:53 Clear 63 17.2 62 16.7 97 97 Calm 29.99 1016 8 13 0.00 0.00
4:53 am 04:53 Clear with Mist and Fog 62 16.7 61 16.1 96 96 SSE 3 6 29.97 1015 6 10 0.00 0.00
5:53 am 05:53 Clear 63 17.2 61 16.1 93 93 Calm 29.99 1016 9 14 0.00 0.00
6:53 am 06:53 Sunny with Mist and Fog 63 17.2 61 16.1 93 93 Calm 30.01 1016 6 10 0.00 0.00
7:53 am 07:53 Sunny 66 18.9 63 17.2 90 90 Calm 30.01 1016 9 14 0.00 0.00
8:53 am 08:53 Sunny 71 21.7 61 16.1 71 71 Calm 30.02 1017 10 16 0.00 0.00
9:53 am 09:53 Sunny 74 23.3 59 15 60 60 Calm 30.03 1017 10 16 0.00 0.00
10:53 am 10:53 Sunny 76 24.4 61 16.1 60 60 Calm 30.02 1017 10 16 0.00 0.00
11:53 am 11:53 Sunny 79 26.1 63 17.2 58 58 Calm 30.02 1017 10 16 0.00 0.00
12:53 pm 12:53 Sunny 82 27.8 65 18.3 56 56 W 9 15 29.99 1016 10 16 0.00 0.00
1:23 pm 13:23 Mostly Sunny 82 27.8 65 18.3 56 56 W 9 15 29.98 1015 10 16 0.00 0.00
1:53 pm 13:53 Sunny 84 28.9 66 18.9 55 55 SW 6 9 29.96 1015 10 16 0.00 0.00
2:53 pm 14:53 Sunny 86 30 66 18.9 51 51 SW 9 15 29.94 1014 10 16 0.00 0.00
3:53 pm 15:53 Mostly Cloudy 84 28.9 64 17.8 51 51 SSW 8 13 29.92 1013 10 16 0.00 0.00
4:53 pm 16:53 Partly Cloudy 86 30 63 17.2 46 46 undefined N/A 29.90 1013 10 16 0.00 0.00
5:53 pm 17:53 Sunny 85 29.4 60 15.6 43 43 SW 9 15 29.89 1012 10 16 0.00 0.00
6:53 pm 18:53 Sunny 84 28.9 63 17.2 49 49 WSW 12 19 29.89 1012 10 16 0.00 0.00
7:53 pm 19:53 Sunny 80 26.7 62 16.7 54 54 SW 7 11 29.88 1012 10 16 0.00 0.00
8:53 pm 20:53 Clear 76 24.4 63 17.2 64 64 S 3 6 29.88 1012 10 16 0.00 0.00
9:53 pm 21:53 Partly Cloudy 74 23.3 64 17.8 71 71 SE 3 6 29.87 1011 10 16 0.00 0.00
10:53 pm 22:53 Clear 73 22.8 64 17.8 74 74 S 3 6 29.89 1012 10 16 0.00 0.00
11:53 pm 23:53 Mostly Clear 75 23.9 64 17.8 69 69 SW 8 13 29.90 1013 10 16 0.00 0.00

Powered by AerisWeather